sat.trackr.live / text

‹ back to catalog

STARLINK-35355

NORAD 66448 · 2025-259AC

PAYLOAD ACTIVE UNKNOWN

§ Identity

Operator
Country
US
Launch date
2025-11-11
Launch site
AFETR
Launch vehicle
Mass (kg)
RCS (m²)

Purposes: comms

External: N2YO · Heavens-Above · Gunter

§ Orbital elements

Epoch: 2026-09-20T23:25:07.407552Z

Period
94.27 min
Inclination
42.9984°
Eccentricity
0.0000911
Mean motion
15.27600008 rev/d
Perigee alt
482.4 km
Apogee alt
483.6 km
Semi-major
6,861.1 km
B*
5.8629e-4
RAAN
251.8264°
Arg perigee
288.8961°
Mean anomaly
71.1792°
Rev number
4,935

§ Raw data

STARLINK-353551 66448U 25259AC  26263.97578018  .00015916  00000+0  58629-3 0  99992 66448  42.9984 251.8264 0000911 288.8961  71.1792 15.27600008 49354

JSON: /api/v1/satellites/66448 · /tle

For live sub-satellite position, see the globe view (requires WebGL).

§ Visibility from observer

Set your observer location to see the next 7 days of passes ≥ 10°. The values pass through the URL so the page stays shareable.

No JS? Fill the form by hand. The geolocation button needs JavaScript.